Time,TemperatureF,DewpointF,PressureIn,WindDirection,WindDirectionDegrees,WindSpeedMPH,WindSpeedGustMPH,Humidity,HourlyPrecipIn,Conditions,Clouds,dailyrainin,SoftwareType,DateUTC
2013-04-29 00:01:00,69.7,64.9,30.08,ENE,60,0.0,5.2,85,0.00,,,0.00,WUHU216PEETBRO,2013-04-29 04:01:00,
2013-04-29 00:06:00,69.7,65.0,30.08,ENE,69,0.0,3.2,85,0.00,,,0.00,WUHU216PEETBRO,2013-04-29 04:06:00,
2013-04-29 00:11:00,69.6,65.0,30.08,East,84,0.0,5.0,85,0.00,,,0.00,WUHU216PEETBRO,2013-04-29 04:11:00,
2013-04-29 00:16:00,69.4,65.0,30.08,East,84,0.0,5.0,86,0.00,,,0.00,WUHU216PEETBRO,2013-04-29 04:16:00,
2013-04-29 00:21:00,69.4,65.2,30.08,ESE,112,0.0,4.8,87,0.00,,,0.00,WUHU216PEETBRO,2013-04-29 04:21:00,
2013-04-29 00:26:00,69.3,65.2,30.08,ESE,105,2.5,6.3,87,0.00,,,0.00,WUHU216PEETBRO,2013-04-29 04:26:00,
2013-04-29 00:31:00,69.3,65.3,30.08,East,88,0.0,6.3,87,0.00,,,0.00,WUHU216PEETBRO,2013-04-29 04:31:00,
2013-04-29 00:36:00,69.1,65.3,30.08,East,100,0.0,4.8,88,0.00,,,0.00,WUHU216PEETBRO,2013-04-29 04:36:00,
2013-04-29 00:41:00,69.2,65.4,30.08,SE,135,2.5,7.0,88,0.00,,,0.00,WUHU216PEETBRO,2013-04-29 04:41:00,
2013-04-29 00:46:00,69.0,65.5,30.08,ESE,117,0.0,7.0,89,0.00,,,0.00,WUHU216PEETBRO,2013-04-29 04:46:00,
2013-04-29 00:51:00,69.1,65.7,30.08,ESE,110,0.0,7.6,89,0.00,,,0.00,WUHU216PEETBRO,2013-04-29 04:51:00,
2013-04-29 00:56:00,69.1,65.7,30.07,NE,55,6.6,8.8,89,0.00,,,0.00,WUHU216PEETBRO,2013-04-29 04:56:00,
2013-04-29 01:01:00,69.0,65.7,30.07,East,93,4.5,13.2,89,0.00,,,0.00,WUHU216PEETBRO,2013-04-29 05:01:00,
2013-04-29 01:06:00,69.1,65.7,30.07,NE,42,5.5,13.2,89,0.00,,,0.00,WUHU216PEETBRO,2013-04-29 05:06:00,
2013-04-29 01:11:00,69.3,65.9,30.07,ESE,110,4.2,10.6,89,0.00,,,0.00,WUHU216PEETBRO,2013-04-29 05:11:00,
2013-04-29 01:16:00,69.4,65.8,30.07,East,90,0.0,8.3,88,0.00,,,0.00,WUHU216PEETBRO,2013-04-29 05:16:00,
2013-04-29 01:21:00,69.5,65.8,30.08,East,98,5.6,8.4,88,0.00,,,0.00,WUHU216PEETBRO,2013-04-29 05:21:00,
2013-04-29 01:26:00,69.6,65.7,30.07,ENE,76,5.0,8.4,88,0.00,,,0.00,WUHU216PEETBRO,2013-04-29 05:26:00,
2013-04-29 01:31:00,69.8,65.7,30.07,East,93,4.7,8.3,87,0.00,,,0.00,WUHU216PEETBRO,2013-04-29 05:31:00,
2013-04-29 01:36:00,70.0,65.6,30.07,SE,127,6.3,8.3,86,0.00,,,0.00,WUHU216PEETBRO,2013-04-29 05:36:00,
2013-04-29 01:41:00,70.2,65.6,30.07,SE,125,8.8,9.7,85,0.00,,,0.00,WUHU216PEETBRO,2013-04-29 05:41:00,
2013-04-29 01:46:00,70.3,65.5,30.07,SSE,160,4.4,9.7,85,0.00,,,0.00,WUHU216PEETBRO,2013-04-29 05:46:00,
2013-04-29 01:51:00,70.4,65.4,30.07,SE,132,6.8,8.8,84,0.00,,,0.00,WUHU216PEETBRO,2013-04-29 05:51:00,
2013-04-29 01:56:00,70.5,65.4,30.07,ESE,107,0.0,7.3,84,0.00,,,0.00,WUHU216PEETBRO,2013-04-29 05:56:00,
2013-04-29 02:01:00,70.5,65.3,30.06,ESE,103,0.0,7.1,84,0.00,,,0.00,WUHU216PEETBRO,2013-04-29 06:01:00,
2013-04-29 02:06:00,70.5,65.3,30.06,South,172,0.0,7.1,84,0.00,,,0.00,WUHU216PEETBRO,2013-04-29 06:06:00,
2013-04-29 02:11:00,70.5,65.3,30.06,SSE,158,5.2,8.3,83,0.00,,,0.00,WUHU216PEETBRO,2013-04-29 06:11:00,
2013-04-29 02:16:00,70.5,65.3,30.06,ESE,103,0.0,8.3,83,0.00,,,0.00,WUHU216PEETBRO,2013-04-29 06:16:00,
2013-04-29 02:21:00,70.5,65.4,30.06,ESE,105,0.0,9.8,84,0.00,,,0.00,WUHU216PEETBRO,2013-04-29 06:21:00,
2013-04-29 02:26:00,70.5,65.3,30.06,SSE,149,2.9,9.8,84,0.00,,,0.00,WUHU216PEETBRO,2013-04-29 06:26:00,
2013-04-29 02:31:00,70.5,65.4,30.05,South,169,6.5,8.6,84,0.00,,,0.00,WUHU216PEETBRO,2013-04-29 06:31:00,
2013-04-29 02:36:00,70.5,65.4,30.05,ESE,112,0.0,7.4,84,0.00,,,0.00,WUHU216PEETBRO,2013-04-29 06:36:00,
2013-04-29 02:41:00,70.4,65.3,30.05,SE,131,3.2,7.4,84,0.00,,,0.00,WUHU216PEETBRO,2013-04-29 06:41:00,
2013-04-29 02:46:00,70.2,65.2,30.05,ESE,104,4.2,7.0,84,0.00,,,0.00,WUHU216PEETBRO,2013-04-29 06:46:00,
2013-04-29 02:51:00,70.3,65.3,30.05,SE,124,0.0,6.4,84,0.00,,,0.00,WUHU216PEETBRO,2013-04-29 06:51:00,
2013-04-29 02:56:00,70.2,65.3,30.05,South,175,3.5,6.4,84,0.00,,,0.00,WUHU216PEETBRO,2013-04-29 06:56:00,
2013-04-29 03:01:00,70.0,65.2,30.05,ESE,121,0.0,6.0,85,0.00,,,0.00,WUHU216PEETBRO,2013-04-29 07:01:00,
2013-04-29 03:06:00,69.9,65.2,30.05,ESE,110,0.0,6.0,85,0.00,,,0.00,WUHU216PEETBRO,2013-04-29 07:06:00,
2013-04-29 03:11:00,69.8,65.2,30.05,NE,55,0.0,4.7,85,0.00,,,0.00,WUHU216PEETBRO,2013-04-29 07:11:00,
2013-04-29 03:16:00,69.7,65.2,30.05,NE,55,0.0,4.7,86,0.00,,,0.00,WUHU216PEETBRO,2013-04-29 07:16:00,
2013-04-29 03:21:00,69.5,65.1,30.04,NE,35,0.0,2.1,86,0.00,,,0.00,WUHU216PEETBRO,2013-04-29 07:21:00,
2013-04-29 03:26:00,69.5,65.2,30.04,SE,139,0.0,3.1,86,0.00,,,0.00,WUHU216PEETBRO,2013-04-29 07:26:00,
2013-04-29 03:31:00,69.4,65.2,30.04,SE,139,0.0,3.1,87,0.00,,,0.00,WUHU216PEETBRO,2013-04-29 07:31:00,
2013-04-29 03:36:00,69.3,65.3,30.04,ESE,110,0.0,4.7,87,0.00,,,0.00,WUHU216PEETBRO,2013-04-29 07:36:00,
2013-04-29 03:41:00,69.1,65.2,30.04,ESE,110,0.0,4.7,87,0.00,,,0.00,WUHU216PEETBRO,2013-04-29 07:41:00,
2013-04-29 03:46:00,69.0,65.2,30.04,SE,125,0.0,6.3,88,0.00,,,0.00,WUHU216PEETBRO,2013-04-29 07:46:00,
2013-04-29 03:51:00,69.0,65.2,30.04,SE,138,0.0,6.3,88,0.00,,,0.00,WUHU216PEETBRO,2013-04-29 07:51:00,
2013-04-29 03:56:00,68.9,65.2,30.04,ESE,108,0.0,4.2,88,0.00,,,0.00,WUHU216PEETBRO,2013-04-29 07:56:00,
2013-04-29 04:01:00,68.9,65.3,30.04,SE,135,0.0,5.0,88,0.00,,,0.00,WUHU216PEETBRO,2013-04-29 08:01:00,
2013-04-29 04:06:00,69.0,65.5,30.04,SE,135,0.0,5.0,89,0.00,,,0.00,WUHU216PEETBRO,2013-04-29 08:06:00,
2013-04-29 04:11:00,68.9,65.4,30.03,SE,125,0.0,4.3,89,0.00,,,0.00,WUHU216PEETBRO,2013-04-29 08:11:00,
2013-04-29 04:16:00,68.9,65.4,30.03,SE,134,0.0,4.3,89,0.00,,,0.00,WUHU216PEETBRO,2013-04-29 08:16:00,
2013-04-29 04:21:00,68.8,65.4,30.03,East,98,0.0,5.5,89,0.00,,,0.00,WUHU216PEETBRO,2013-04-29 08:21:00,
2013-04-29 04:26:00,68.7,65.4,30.03,ESE,107,0.0,5.5,89,0.00,,,0.00,WUHU216PEETBRO,2013-04-29 08:26:00,
2013-04-29 04:31:00,68.7,65.4,30.03,SE,134,0.0,3.2,89,0.00,,,0.00,WUHU216PEETBRO,2013-04-29 08:31:00,
2013-04-29 04:36:00,68.5,65.3,30.02,East,97,4.8,6.0,90,0.00,,,0.00,WUHU216PEETBRO,2013-04-29 08:36:00,
2013-04-29 04:41:00,68.4,65.3,30.02,SE,146,4.7,8.1,90,0.00,,,0.00,WUHU216PEETBRO,2013-04-29 08:41:00,
2013-04-29 04:46:00,68.4,65.4,30.02,SSE,152,0.0,8.1,90,0.00,,,0.00,WUHU216PEETBRO,2013-04-29 08:46:00,
2013-04-29 04:51:00,68.3,65.4,30.02,East,90,0.0,6.7,91,0.00,,,0.00,WUHU216PEETBRO,2013-04-29 08:51:00,
2013-04-29 04:56:00,68.3,65.4,30.02,ESE,122,0.0,6.7,91,0.00,,,0.00,WUHU216PEETBRO,2013-04-29 08:56:00,
2013-04-29 05:01:00,68.3,65.5,30.02,ESE,122,0.0,5.7,91,0.00,,,0.00,WUHU216PEETBRO,2013-04-29 09:01:00,
2013-04-29 05:06:00,68.3,65.5,30.02,SSE,155,0.0,3.2,91,0.00,,,0.00,WUHU216PEETBRO,2013-04-29 09:06:00,
2013-04-29 05:11:00,68.3,65.5,30.02,SE,135,0.0,5.2,91,0.00,,,0.00,WUHU216PEETBRO,2013-04-29 09:11:00,
2013-04-29 05:16:00,68.4,65.6,30.03,SSE,153,0.0,5.2,91,0.00,,,0.00,WUHU216PEETBRO,2013-04-29 09:16:00,
2013-04-29 05:21:00,68.4,65.6,30.03,SSE,153,0.0,4.8,91,0.00,,,0.00,WUHU216PEETBRO,2013-04-29 09:21:00,
2013-04-29 05:26:00,68.4,65.6,30.03,SSE,153,0.0,0.0,91,0.00,,,0.00,WUHU216PEETBRO,2013-04-29 09:26:00,
2013-04-29 05:31:00,68.4,65.6,30.03,SSE,153,0.0,0.0,91,0.00,,,0.00,WUHU216PEETBRO,2013-04-29 09:31:00,
2013-04-29 05:36:00,68.4,65.6,30.03,SSE,153,0.0,0.0,91,0.00,,,0.00,WUHU216PEETBRO,2013-04-29 09:36:00,
2013-04-29 05:41:00,68.4,65.7,30.04,SSE,153,0.0,0.0,91,0.00,,,0.00,WUHU216PEETBRO,2013-04-29 09:41:00,
2013-04-29 05:46:00,68.5,65.8,30.04,SSE,153,0.0,0.0,91,0.00,,,0.00,WUHU216PEETBRO,2013-04-29 09:46:00,
2013-04-29 05:51:00,68.5,65.8,30.04,SSE,153,0.0,0.0,91,0.00,,,0.00,WUHU216PEETBRO,2013-04-29 09:51:00,
2013-04-29 05:56:00,68.4,65.7,30.04,SSE,153,0.0,0.0,91,0.00,,,0.00,WUHU216PEETBRO,2013-04-29 09:56:00,
2013-04-29 06:01:00,68.5,65.9,30.04,SSE,153,0.0,0.0,92,0.00,,,0.00,WUHU216PEETBRO,2013-04-29 10:01:00,
2013-04-29 06:06:00,68.6,66.0,30.04,SSE,153,0.0,0.0,92,0.00,,,0.00,WUHU216PEETBRO,2013-04-29 10:06:00,
2013-04-29 06:11:00,68.8,66.2,30.04,SSE,153,0.0,0.0,92,0.00,,,0.00,WUHU216PEETBRO,2013-04-29 10:11:00,
2013-04-29 06:16:00,68.9,66.2,30.04,SSE,153,0.0,0.0,91,0.00,,,0.00,WUHU216PEETBRO,2013-04-29 10:16:00,
2013-04-29 06:21:00,68.9,66.2,30.04,SSE,153,0.0,0.0,91,0.00,,,0.00,WUHU216PEETBRO,2013-04-29 10:21:00,
2013-04-29 06:26:00,68.9,66.2,30.05,SSE,153,0.0,0.0,91,0.00,,,0.00,WUHU216PEETBRO,2013-04-29 10:26:00,
2013-04-29 06:31:00,68.8,66.1,30.04,SSE,153,0.0,0.0,91,0.00,,,0.00,WUHU216PEETBRO,2013-04-29 10:31:00,
2013-04-29 06:36:00,68.7,66.0,30.05,SSE,153,0.0,0.0,91,0.00,,,0.00,WUHU216PEETBRO,2013-04-29 10:36:00,
2013-04-29 06:41:00,68.8,66.2,30.05,SSE,153,0.0,0.0,91,0.00,,,0.00,WUHU216PEETBRO,2013-04-29 10:41:00,
2013-04-29 06:46:00,68.8,66.2,30.05,SSE,153,0.0,0.0,91,0.00,,,0.00,WUHU216PEETBRO,2013-04-29 10:46:00,
2013-04-29 06:51:00,68.7,66.1,30.05,SSE,153,0.0,0.0,92,0.00,,,0.00,WUHU216PEETBRO,2013-04-29 10:51:00,
2013-04-29 06:56:00,68.8,66.2,30.05,SSE,153,0.0,0.0,92,0.00,,,0.00,WUHU216PEETBRO,2013-04-29 10:56:00,
2013-04-29 07:01:00,68.8,66.2,30.05,SSE,153,0.0,0.0,91,0.00,,,0.00,WUHU216PEETBRO,2013-04-29 11:01:00,
2013-04-29 07:06:00,68.9,66.3,30.05,SSE,153,0.0,0.0,92,0.00,,,0.00,WUHU216PEETBRO,2013-04-29 11:06:00,
2013-04-29 07:11:00,68.9,66.3,30.05,SSE,153,0.0,0.0,92,0.00,,,0.00,WUHU216PEETBRO,2013-04-29 11:11:00,
2013-04-29 07:16:00,68.8,66.2,30.05,SSE,153,0.0,0.0,92,0.00,,,0.00,WUHU216PEETBRO,2013-04-29 11:16:00,
2013-04-29 07:21:00,68.8,66.2,30.06,SSE,153,0.0,0.0,92,0.00,,,0.00,WUHU216PEETBRO,2013-04-29 11:21:00,
2013-04-29 07:26:00,68.9,66.3,30.06,SSE,153,0.0,0.0,92,0.00,,,0.00,WUHU216PEETBRO,2013-04-29 11:26:00,
2013-04-29 07:31:00,68.9,66.3,30.06,SSE,153,0.0,0.0,92,0.00,,,0.00,WUHU216PEETBRO,2013-04-29 11:31:00,
2013-04-29 07:36:00,69.1,66.6,30.06,SSE,153,0.0,0.0,92,0.00,,,0.00,WUHU216PEETBRO,2013-04-29 11:36:00,
2013-04-29 07:41:00,69.4,66.9,30.07,SSE,153,0.0,0.0,92,0.00,,,0.00,WUHU216PEETBRO,2013-04-29 11:41:00,
2013-04-29 07:46:00,69.6,67.1,30.07,SSE,153,0.0,0.0,92,0.00,,,0.00,WUHU216PEETBRO,2013-04-29 11:46:00,
2013-04-29 07:51:00,69.9,67.3,30.07,SSE,153,0.0,0.0,92,0.00,,,0.00,WUHU216PEETBRO,2013-04-29 11:51:00,
2013-04-29 07:56:00,70.2,67.5,30.06,SSE,153,0.0,0.0,91,0.00,,,0.00,WUHU216PEETBRO,2013-04-29 11:56:00,
2013-04-29 08:01:00,70.5,67.7,30.07,SE,145,0.0,0.0,91,0.00,,,0.00,WUHU216PEETBRO,2013-04-29 12:01:00,
2013-04-29 08:06:00,70.8,67.8,30.06,SE,145,0.0,0.0,90,0.00,,,0.00,WUHU216PEETBRO,2013-04-29 12:06:00,
2013-04-29 08:11:00,70.9,67.8,30.07,SE,145,0.0,0.0,90,0.00,,,0.00,WUHU216PEETBRO,2013-04-29 12:11:00,
2013-04-29 08:16:00,71.2,68.1,30.07,SE,145,0.0,0.0,90,0.00,,,0.00,WUHU216PEETBRO,2013-04-29 12:16:00,
2013-04-29 08:21:00,71.4,68.2,30.07,SE,145,0.0,0.0,90,0.00,,,0.00,WUHU216PEETBRO,2013-04-29 12:21:00,
2013-04-29 08:26:00,71.6,68.1,30.06,SE,145,0.0,0.0,89,0.00,,,0.00,WUHU216PEETBRO,2013-04-29 12:26:00,
2013-04-29 08:31:00,72.0,68.3,30.07,SE,145,0.0,0.0,88,0.00,,,0.00,WUHU216PEETBRO,2013-04-29 12:31:00,
2013-04-29 08:36:00,72.4,68.4,30.07,East,80,0.0,4.3,87,0.00,,,0.00,WUHU216PEETBRO,2013-04-29 12:36:00,
2013-04-29 08:41:00,72.5,68.2,30.07,South,182,3.4,5.0,86,0.00,,,0.00,WUHU216PEETBRO,2013-04-29 12:41:00,
2013-04-29 08:46:00,72.9,68.4,30.07,South,182,5.0,5.7,86,0.00,,,0.00,WUHU216PEETBRO,2013-04-29 12:46:00,
2013-04-29 08:51:00,73.0,67.9,30.07,SSE,156,0.0,6.3,84,0.00,,,0.00,WUHU216PEETBRO,2013-04-29 12:51:00,
2013-04-29 08:56:00,73.3,68.3,30.07,ESE,104,3.5,6.3,84,0.00,,,0.00,WUHU216PEETBRO,2013-04-29 12:56:00,
2013-04-29 09:01:00,73.7,68.2,30.07,South,176,8.3,10.4,83,0.00,,,0.00,WUHU216PEETBRO,2013-04-29 13:01:00,
2013-04-29 09:06:00,74.4,68.3,30.06,ESE,103,7.5,10.4,81,0.00,,,0.00,WUHU216PEETBRO,2013-04-29 13:06:00,
2013-04-29 09:11:00,74.8,67.7,30.06,ENE,76,5.6,10.9,78,0.00,,,0.00,WUHU216PEETBRO,2013-04-29 13:11:00,
2013-04-29 09:16:00,75.0,67.4,30.06,South,169,6.8,10.9,77,0.00,,,0.00,WUHU216PEETBRO,2013-04-29 13:16:00,
2013-04-29 09:21:00,75.3,67.2,30.06,NNE,21,6.9,10.8,76,0.00,,,0.00,WUHU216PEETBRO,2013-04-29 13:21:00,
2013-04-29 09:26:00,75.7,66.5,30.06,South,177,8.2,12.8,73,0.00,,,0.00,WUHU216PEETBRO,2013-04-29 13:26:00,
2013-04-29 09:31:00,75.9,66.6,30.06,South,190,8.4,12.8,72,0.00,,,0.00,WUHU216PEETBRO,2013-04-29 13:31:00,
2013-04-29 09:36:00,76.0,66.5,30.06,SE,135,8.3,16.4,72,0.00,,,0.00,WUHU216PEETBRO,2013-04-29 13:36:00,
2013-04-29 09:41:00,76.1,66.2,30.06,SSE,158,4.9,16.4,71,0.00,,,0.00,WUHU216PEETBRO,2013-04-29 13:41:00,
2013-04-29 09:46:00,76.3,66.0,30.06,South,177,8.1,12.9,70,0.00,,,0.00,WUHU216PEETBRO,2013-04-29 13:46:00,
2013-04-29 09:51:00,76.4,66.4,30.06,ESE,107,9.2,14.7,71,0.00,,,0.00,WUHU216PEETBRO,2013-04-29 13:51:00,
2013-04-29 09:56:00,76.8,65.6,30.06,East,88,5.7,14.7,68,0.00,,,0.00,WUHU216PEETBRO,2013-04-29 13:56:00,
2013-04-29 10:01:00,76.9,64.9,30.07,SE,125,5.3,13.7,66,0.00,,,0.00,WUHU216PEETBRO,2013-04-29 14:01:00,
2013-04-29 10:06:00,77.3,64.6,30.07,South,170,8.3,13.7,64,0.00,,,0.00,WUHU216PEETBRO,2013-04-29 14:06:00,
2013-04-29 10:11:00,77.1,64.4,30.07,ESE,104,7.0,13.7,64,0.00,,,0.00,WUHU216PEETBRO,2013-04-29 14:11:00,
2013-04-29 10:16:00,77.3,64.6,30.06,SSE,152,7.0,15.5,65,0.00,,,0.00,WUHU216PEETBRO,2013-04-29 14:16:00,
2013-04-29 10:21:00,77.9,64.3,30.06,South,172,8.1,15.5,63,0.00,,,0.00,WUHU216PEETBRO,2013-04-29 14:21:00,
2013-04-29 10:26:00,78.8,64.7,30.06,ESE,119,2.5,9.6,62,0.00,,,0.00,WUHU216PEETBRO,2013-04-29 14:26:00,
2013-04-29 10:31:00,78.9,63.3,30.06,ESE,108,4.9,11.5,58,0.00,,,0.00,WUHU216PEETBRO,2013-04-29 14:31:00,
2013-04-29 10:36:00,79.2,63.4,30.06,ENE,66,9.1,11.5,58,0.00,,,0.00,WUHU216PEETBRO,2013-04-29 14:36:00,
2013-04-29 10:41:00,78.9,62.4,30.06,SSE,155,9.3,12.1,57,0.00,,,0.00,WUHU216PEETBRO,2013-04-29 14:41:00,
2013-04-29 10:46:00,78.9,62.5,30.06,SE,134,9.9,12.1,57,0.00,,,0.00,WUHU216PEETBRO,2013-04-29 14:46:00,
2013-04-29 10:51:00,79.0,63.0,30.06,SSE,166,10.5,11.2,58,0.00,,,0.00,WUHU216PEETBRO,2013-04-29 14:51:00,
2013-04-29 10:56:00,79.3,62.0,30.06,ESE,107,4.3,11.1,55,0.00,,,0.00,WUHU216PEETBRO,2013-04-29 14:56:00,
2013-04-29 11:01:00,79.9,62.4,30.06,NE,36,4.8,11.1,55,0.00,,,0.00,WUHU216PEETBRO,2013-04-29 15:01:00,
2013-04-29 11:06:00,80.0,61.5,30.05,NE,45,4.2,10.0,53,0.00,,,0.00,WUHU216PEETBRO,2013-04-29 15:06:00,
2013-04-29 11:11:00,80.4,60.7,30.05,SSE,151,5.5,13.4,51,0.00,,,0.00,WUHU216PEETBRO,2013-04-29 15:11:00,
2013-04-29 11:16:00,80.5,60.8,30.06,ESE,118,4.3,13.4,51,0.00,,,0.00,WUHU216PEETBRO,2013-04-29 15:16:00,
2013-04-29 11:21:00,80.5,60.8,30.06,East,93,0.0,11.9,51,0.00,,,0.00,WUHU216PEETBRO,2013-04-29 15:21:00,
2013-04-29 11:26:00,80.3,59.1,30.06,South,170,2.8,12.4,48,0.00,,,0.00,WUHU216PEETBRO,2013-04-29 15:26:00,
2013-04-29 11:31:00,80.3,59.5,30.06,SE,143,6.0,12.4,49,0.00,,,0.00,WUHU216PEETBRO,2013-04-29 15:31:00,
2013-04-29 11:36:00,80.3,60.0,30.06,South,187,4.8,11.2,50,0.00,,,0.00,WUHU216PEETBRO,2013-04-29 15:36:00,
2013-04-29 11:41:00,80.3,58.4,30.06,SSE,156,5.7,10.0,47,0.00,,,0.00,WUHU216PEETBRO,2013-04-29 15:41:00,
2013-04-29 11:46:00,80.7,58.7,30.06,SW,224,5.5,10.1,47,0.00,,,0.00,WUHU216PEETBRO,2013-04-29 15:46:00,
2013-04-29 11:52:00,81.2,58.0,30.05,WSW,242,9.4,10.1,45,0.00,,,0.00,WUHU216PEETBRO,2013-04-29 15:52:00,
2013-04-29 11:57:00,81.6,58.2,30.05,SE,142,5.8,10.4,45,0.00,,,0.00,WUHU216PEETBRO,2013-04-29 15:57:00,
2013-04-29 12:02:00,81.7,58.1,30.05,SSE,163,9.5,12.3,45,0.00,,,0.00,WUHU216PEETBRO,2013-04-29 16:02:00,
2013-04-29 12:07:00,82.1,58.0,30.05,South,170,10.7,12.3,44,0.00,,,0.00,WUHU216PEETBRO,2013-04-29 16:07:00,
2013-04-29 12:12:00,81.9,57.7,30.05,SE,139,3.3,11.4,44,0.00,,,0.00,WUHU216PEETBRO,2013-04-29 16:12:00,
2013-04-29 12:17:00,81.8,55.8,30.05,South,183,7.2,10.2,41,0.00,,,0.00,WUHU216PEETBRO,2013-04-29 16:17:00,
2013-04-29 12:22:00,82.3,56.6,30.05,WNW,292,0.0,9.8,42,0.00,,,0.00,WUHU216PEETBRO,2013-04-29 16:22:00,
2013-04-29 12:27:00,82.7,56.8,30.05,SE,128,5.8,8.8,41,0.00,,,0.00,WUHU216PEETBRO,2013-04-29 16:27:00,
2013-04-29 12:32:00,83.0,57.0,30.05,SE,142,7.1,10.6,41,0.00,,,0.00,WUHU216PEETBRO,2013-04-29 16:32:00,
2013-04-29 12:37:00,82.8,57.1,30.05,SSW,210,3.5,10.6,42,0.00,,,0.00,WUHU216PEETBRO,2013-04-29 16:37:00,
2013-04-29 12:42:00,82.7,57.2,30.05,South,170,5.0,8.6,42,0.00,,,0.00,WUHU216PEETBRO,2013-04-29 16:42:00,
2013-04-29 12:47:00,82.5,56.0,30.05,SE,135,5.5,9.9,41,0.00,,,0.00,WUHU216PEETBRO,2013-04-29 16:47:00,
2013-04-29 12:52:00,82.5,56.7,30.05,SE,141,4.9,9.9,42,0.00,,,0.00,WUHU216PEETBRO,2013-04-29 16:52:00,
2013-04-29 12:57:00,82.7,55.6,30.04,South,184,3.2,8.7,40,0.00,,,0.00,WUHU216PEETBRO,2013-04-29 16:57:00,
2013-04-29 13:02:00,82.8,57.3,30.04,SSW,196,3.5,7.1,42,0.00,,,0.00,WUHU216PEETBRO,2013-04-29 17:02:00,
2013-04-29 13:07:00,82.5,57.4,30.04,SSE,165,4.2,8.5,43,0.00,,,0.00,WUHU216PEETBRO,2013-04-29 17:07:00,
2013-04-29 13:12:00,82.4,57.0,30.04,SSE,149,3.4,8.5,42,0.00,,,0.00,WUHU216PEETBRO,2013-04-29 17:12:00,
2013-04-29 13:17:00,82.5,56.9,30.04,WSW,241,6.8,9.2,42,0.00,,,0.00,WUHU216PEETBRO,2013-04-29 17:17:00,
2013-04-29 13:22:00,82.7,57.2,30.04,South,179,5.8,9.2,42,0.00,,,0.00,WUHU216PEETBRO,2013-04-29 17:22:00,
2013-04-29 13:27:00,82.9,57.1,30.03,SSW,206,3.3,10.4,42,0.00,,,0.00,WUHU216PEETBRO,2013-04-29 17:27:00,
2013-04-29 13:32:00,83.2,53.0,30.04,SSW,194,5.1,10.4,36,0.00,,,0.00,WUHU216PEETBRO,2013-04-29 17:32:00,
2013-04-29 13:37:00,83.2,55.2,30.03,SSE,151,6.0,11.4,39,0.00,,,0.00,WUHU216PEETBRO,2013-04-29 17:37:00,
2013-04-29 13:42:00,83.2,55.8,30.03,South,183,5.4,11.4,39,0.00,,,0.00,WUHU216PEETBRO,2013-04-29 17:42:00,
2013-04-29 13:47:00,83.1,56.4,30.03,SSW,210,6.7,9.7,40,0.00,,,0.00,WUHU216PEETBRO,2013-04-29 17:47:00,
2013-04-29 13:52:00,83.2,57.2,30.03,South,170,4.2,11.7,41,0.00,,,0.00,WUHU216PEETBRO,2013-04-29 17:52:00,
2013-04-29 13:57:00,83.2,57.4,30.02,SSE,165,7.6,11.7,42,0.00,,,0.00,WUHU216PEETBRO,2013-04-29 17:57:00,
2013-04-29 14:02:00,83.2,58.6,30.02,SSW,194,3.5,11.2,43,0.00,,,0.00,WUHU216PEETBRO,2013-04-29 18:02:00,
2013-04-29 14:07:00,83.2,58.5,30.02,SE,135,4.5,11.2,43,0.00,,,0.00,WUHU216PEETBRO,2013-04-29 18:07:00,
2013-04-29 14:12:00,83.1,58.6,30.01,ESE,103,3.0,9.7,44,0.00,,,0.00,WUHU216PEETBRO,2013-04-29 18:12:00,
2013-04-29 14:17:00,83.3,58.2,30.01,SSW,200,6.1,9.7,43,0.00,,,0.00,WUHU216PEETBRO,2013-04-29 18:17:00,
2013-04-29 14:22:00,83.3,58.3,30.01,SSE,160,6.2,9.9,43,0.00,,,0.00,WUHU216PEETBRO,2013-04-29 18:22:00,
2013-04-29 14:27:00,83.4,58.4,30.01,SE,141,4.5,9.9,43,0.00,,,0.00,WUHU216PEETBRO,2013-04-29 18:27:00,
2013-04-29 14:32:00,83.8,59.2,30.01,North,359,9.3,9.3,43,0.00,,,0.00,WUHU216PEETBRO,2013-04-29 18:32:00,
2013-04-29 14:37:00,83.9,58.8,30.01,SE,139,4.8,9.3,43,0.00,,,0.00,WUHU216PEETBRO,2013-04-29 18:37:00,
2013-04-29 14:42:00,83.3,58.5,30.00,ESE,122,3.5,9.3,43,0.00,,,0.00,WUHU216PEETBRO,2013-04-29 18:42:00,
2013-04-29 14:47:00,83.3,59.1,30.00,WSW,249,5.0,10.4,44,0.00,,,0.00,WUHU216PEETBRO,2013-04-29 18:47:00,
2013-04-29 14:52:00,83.5,58.6,29.99,SE,141,7.8,10.4,43,0.00,,,0.00,WUHU216PEETBRO,2013-04-29 18:52:00,
2013-04-29 14:57:00,83.4,59.0,29.99,SE,139,6.1,9.5,44,0.00,,,0.00,WUHU216PEETBRO,2013-04-29 18:57:00,
2013-04-29 15:02:00,83.5,57.2,29.99,South,169,5.2,11.2,41,0.00,,,0.00,WUHU216PEETBRO,2013-04-29 19:02:00,
2013-04-29 15:07:00,83.8,56.9,29.99,SE,139,0.0,11.2,40,0.00,,,0.00,WUHU216PEETBRO,2013-04-29 19:07:00,
2013-04-29 15:12:00,84.2,57.3,29.98,SW,227,5.6,9.3,40,0.00,,,0.00,WUHU216PEETBRO,2013-04-29 19:12:00,
2013-04-29 15:17:00,84.2,57.4,29.98,SW,235,4.8,9.3,40,0.00,,,0.00,WUHU216PEETBRO,2013-04-29 19:17:00,
2013-04-29 15:22:00,84.5,57.9,29.98,SSE,160,5.8,9.9,41,0.00,,,0.00,WUHU216PEETBRO,2013-04-29 19:22:00,
2013-04-29 15:27:00,85.0,57.8,29.98,South,183,5.5,9.9,40,0.00,,,0.00,WUHU216PEETBRO,2013-04-29 19:27:00,
2013-04-29 15:32:00,85.1,57.9,29.97,SSW,206,4.6,9.3,40,0.00,,,0.00,WUHU216PEETBRO,2013-04-29 19:32:00,
2013-04-29 15:37:00,84.8,57.9,29.97,SSE,160,5.8,9.1,40,0.00,,,0.00,WUHU216PEETBRO,2013-04-29 19:37:00,
2013-04-29 15:42:00,84.5,57.6,29.97,SSE,162,6.7,9.6,40,0.00,,,0.00,WUHU216PEETBRO,2013-04-29 19:42:00,
2013-04-29 15:47:00,84.6,58.5,29.96,South,191,6.1,9.6,41,0.00,,,0.00,WUHU216PEETBRO,2013-04-29 19:47:00,
2013-04-29 15:52:00,84.5,58.0,29.96,SSE,153,11.4,11.4,41,0.00,,,0.00,WUHU216PEETBRO,2013-04-29 19:52:00,
2013-04-29 15:57:00,84.1,57.9,29.96,South,170,5.6,12.8,41,0.00,,,0.00,WUHU216PEETBRO,2013-04-29 19:57:00,
2013-04-29 16:02:00,84.4,58.9,29.96,South,190,3.5,12.8,42,0.00,,,0.00,WUHU216PEETBRO,2013-04-29 20:02:00,
2013-04-29 16:07:00,84.8,57.5,29.96,SSW,199,6.2,11.6,40,0.00,,,0.00,WUHU216PEETBRO,2013-04-29 20:07:00,
2013-04-29 16:12:00,84.8,57.8,29.95,SW,234,4.6,11.6,40,0.00,,,0.00,WUHU216PEETBRO,2013-04-29 20:12:00,
2013-04-29 16:17:00,85.1,58.4,29.95,SW,215,5.3,10.0,41,0.00,,,0.00,WUHU216PEETBRO,2013-04-29 20:17:00,
2013-04-29 16:22:00,85.2,57.8,29.95,SE,146,8.1,8.3,40,0.00,,,0.00,WUHU216PEETBRO,2013-04-29 20:22:00,
2013-04-29 16:27:00,84.6,58.6,29.95,ESE,112,4.8,8.5,41,0.00,,,0.00,WUHU216PEETBRO,2013-04-29 20:27:00,
2013-04-29 16:32:00,84.4,58.8,29.95,SSE,152,4.4,10.9,42,0.00,,,0.00,WUHU216PEETBRO,2013-04-29 20:32:00,
2013-04-29 16:37:00,84.6,58.4,29.95,SSE,165,6.1,10.9,41,0.00,,,0.00,WUHU216PEETBRO,2013-04-29 20:37:00,
2013-04-29 16:42:00,84.3,58.6,29.95,NE,38,5.6,10.9,42,0.00,,,0.00,WUHU216PEETBRO,2013-04-29 20:42:00,
2013-04-29 16:47:00,84.3,59.4,29.95,NE,39,3.4,10.3,43,0.00,,,0.00,WUHU216PEETBRO,2013-04-29 20:47:00,
2013-04-29 16:52:00,84.3,58.9,29.95,SSE,165,6.3,10.3,42,0.00,,,0.00,WUHU216PEETBRO,2013-04-29 20:52:00,
2013-04-29 16:57:00,84.3,59.3,29.95,South,190,3.5,9.5,43,0.00,,,0.00,WUHU216PEETBRO,2013-04-29 20:57:00,
2013-04-29 17:02:00,84.4,59.3,29.95,SW,215,4.2,9.5,43,0.00,,,0.00,WUHU216PEETBRO,2013-04-29 21:02:00,
2013-04-29 17:07:00,84.4,59.3,29.95,South,191,5.0,7.3,43,0.00,,,0.00,WUHU216PEETBRO,2013-04-29 21:07:00,
2013-04-29 17:12:00,84.4,59.5,29.95,South,190,5.5,10.3,43,0.00,,,0.00,WUHU216PEETBRO,2013-04-29 21:12:00,
2013-04-29 17:17:00,84.1,59.7,29.95,SE,124,0.0,10.3,44,0.00,,,0.00,WUHU216PEETBRO,2013-04-29 21:17:00,
2013-04-29 17:22:00,84.4,59.7,29.95,NE,47,6.8,7.1,43,0.00,,,0.00,WUHU216PEETBRO,2013-04-29 21:22:00,
2013-04-29 17:27:00,84.4,59.7,29.95,NNE,25,0.0,7.1,43,0.00,,,0.00,WUHU216PEETBRO,2013-04-29 21:27:00,
2013-04-29 17:32:00,84.3,63.8,29.95,ESE,121,2.9,8.0,50,0.00,,,0.00,WUHU216PEETBRO,2013-04-29 21:32:00,
2013-04-29 17:37:00,83.6,64.1,29.95,SE,134,6.5,9.7,52,0.00,,,0.00,WUHU216PEETBRO,2013-04-29 21:37:00,
2013-04-29 17:42:00,83.2,64.1,29.95,SSE,166,4.8,9.7,52,0.00,,,0.00,WUHU216PEETBRO,2013-04-29 21:42:00,
2013-04-29 17:47:00,82.6,64.9,29.94,South,183,3.3,7.2,55,0.00,,,0.00,WUHU216PEETBRO,2013-04-29 21:47:00,
2013-04-29 17:52:00,82.6,64.9,29.94,East,81,2.9,7.2,55,0.00,,,0.00,WUHU216PEETBRO,2013-04-29 21:52:00,
2013-04-29 17:57:00,82.9,65.4,29.94,NNE,25,6.8,11.3,55,0.00,,,0.00,WUHU216PEETBRO,2013-04-29 21:57:00,
2013-04-29 18:02:00,82.6,65.8,29.95,SSW,206,4.6,11.3,57,0.00,,,0.00,WUHU216PEETBRO,2013-04-29 22:02:00,
2013-04-29 18:07:00,82.3,66.4,29.95,ESE,114,4.5,10.4,58,0.00,,,0.00,WUHU216PEETBRO,2013-04-29 22:07:00,
2013-04-29 18:12:00,82.2,67.1,29.95,ESE,104,4.8,15.2,60,0.00,,,0.00,WUHU216PEETBRO,2013-04-29 22:12:00,
2013-04-29 18:17:00,81.9,67.5,29.95,North,11,5.8,15.2,61,0.00,,,0.00,WUHU216PEETBRO,2013-04-29 22:17:00,
2013-04-29 18:22:00,81.5,68.3,29.95,North,359,4.5,12.0,64,0.00,,,0.00,WUHU216PEETBRO,2013-04-29 22:22:00,
2013-04-29 18:27:00,81.2,68.3,29.95,ESE,117,6.8,12.5,64,0.00,,,0.00,WUHU216PEETBRO,2013-04-29 22:27:00,
2013-04-29 18:32:00,81.1,68.6,29.95,ESE,103,9.9,12.5,65,0.00,,,0.00,WUHU216PEETBRO,2013-04-29 22:32:00,
2013-04-29 18:37:00,80.9,68.9,29.95,ESE,118,5.8,9.9,66,0.00,,,0.00,WUHU216PEETBRO,2013-04-29 22:37:00,
2013-04-29 18:42:00,80.7,68.6,29.95,ENE,76,12.9,12.9,66,0.00,,,0.00,WUHU216PEETBRO,2013-04-29 22:42:00,
2013-04-29 18:47:00,80.1,68.5,29.95,East,94,9.4,12.9,67,0.00,,,0.00,WUHU216PEETBRO,2013-04-29 22:47:00,
2013-04-29 18:52:00,79.8,68.7,29.95,East,94,4.9,11.4,69,0.00,,,0.00,WUHU216PEETBRO,2013-04-29 22:52:00,
2013-04-29 18:57:00,79.4,68.9,29.95,ESE,122,9.8,13.7,70,0.00,,,0.00,WUHU216PEETBRO,2013-04-29 22:57:00,
2013-04-29 19:02:00,79.1,68.8,29.95,East,80,8.6,13.7,70,0.00,,,0.00,WUHU216PEETBRO,2013-04-29 23:02:00,
2013-04-29 19:07:00,79.0,68.9,29.95,South,173,4.3,12.5,71,0.00,,,0.00,WUHU216PEETBRO,2013-04-29 23:07:00,
2013-04-29 19:12:00,78.9,69.0,29.95,SE,129,7.1,11.6,71,0.00,,,0.00,WUHU216PEETBRO,2013-04-29 23:12:00,
2013-04-29 19:17:00,79.0,69.2,29.94,SE,146,6.0,11.6,72,0.00,,,0.00,WUHU216PEETBRO,2013-04-29 23:17:00,
2013-04-29 19:22:00,78.7,69.2,29.94,NE,56,4.6,10.0,72,0.00,,,0.00,WUHU216PEETBRO,2013-04-29 23:22:00,
2013-04-29 19:27:00,78.5,69.2,29.95,SE,128,7.7,12.9,73,0.00,,,0.00,WUHU216PEETBRO,2013-04-29 23:27:00,
2013-04-29 19:32:00,78.4,69.3,29.94,SE,125,0.0,12.9,73,0.00,,,0.00,WUHU216PEETBRO,2013-04-29 23:32:00,
2013-04-29 19:37:00,78.5,69.4,29.94,ESE,107,1.6,8.8,73,0.00,,,0.00,WUHU216PEETBRO,2013-04-29 23:37:00,
2013-04-29 19:42:00,78.4,69.6,29.94,NE,49,4.7,6.9,74,0.00,,,0.00,WUHU216PEETBRO,2013-04-29 23:42:00,
2013-04-29 19:47:00,78.1,70.0,29.94,East,101,7.5,9.1,76,0.00,,,0.00,WUHU216PEETBRO,2013-04-29 23:47:00,
2013-04-29 19:52:00,77.7,70.7,29.95,ESE,111,8.5,9.1,79,0.00,,,0.00,WUHU216PEETBRO,2013-04-29 23:52:00,
2013-04-29 19:57:00,77.2,70.9,29.95,SE,128,6.8,8.5,81,0.00,,,0.00,WUHU216PEETBRO,2013-04-29 23:57:00,
2013-04-29 20:02:00,77.0,71.0,29.95,NE,52,6.8,6.8,82,0.00,,,0.00,WUHU216PEETBRO,2013-04-30 00:02:00,
2013-04-29 20:07:00,76.9,71.1,29.95,ESE,111,5.7,6.8,82,0.00,,,0.00,WUHU216PEETBRO,2013-04-30 00:07:00,
2013-04-29 20:12:00,76.8,71.1,29.95,West,265,0.0,6.8,82,0.00,,,0.00,WUHU216PEETBRO,2013-04-30 00:12:00,
2013-04-29 20:17:00,76.7,71.4,29.96,SE,128,12.6,12.6,84,0.00,,,0.00,WUHU216PEETBRO,2013-04-30 00:17:00,
2013-04-29 20:22:00,72.9,69.6,29.97,SSE,162,11.7,19.1,89,0.12,,,0.12,WUHU216PEETBRO,2013-04-30 00:22:00,
2013-04-29 20:27:00,70.8,68.5,29.98,South,172,17.7,19.9,93,0.31,,,0.31,WUHU216PEETBRO,2013-04-30 00:27:00,
2013-04-29 20:32:00,69.5,67.6,29.98,SE,143,3.3,19.9,94,0.45,,,0.45,WUHU216PEETBRO,2013-04-30 00:32:00,
2013-04-29 20:37:00,69.4,67.8,29.98,South,169,0.0,13.3,95,0.48,,,0.48,WUHU216PEETBRO,2013-04-30 00:37:00,
2013-04-29 20:42:00,69.5,67.9,29.99,South,186,0.0,8.0,95,0.53,,,0.53,WUHU216PEETBRO,2013-04-30 00:42:00,
2013-04-29 20:47:00,69.7,68.1,30.00,SSE,159,0.0,5.2,95,0.59,,,0.59,WUHU216PEETBRO,2013-04-30 00:47:00,
2013-04-29 20:52:00,69.9,68.3,30.01,SE,139,0.0,5.2,95,0.75,,,0.75,WUHU216PEETBRO,2013-04-30 00:52:00,
2013-04-29 20:57:00,69.8,68.3,30.02,SSE,153,0.0,4.3,95,0.98,,,0.98,WUHU216PEETBRO,2013-04-30 00:57:00,
2013-04-29 21:02:00,69.5,68.0,30.02,SE,127,0.0,4.3,95,1.12,,,1.12,WUHU216PEETBRO,2013-04-30 01:02:00,
2013-04-29 21:07:00,69.5,68.1,30.02,SE,127,0.0,4.3,96,1.22,,,1.22,WUHU216PEETBRO,2013-04-30 01:07:00,
2013-04-29 21:12:00,69.2,68.0,30.03,SE,146,3.1,4.7,96,1.28,,,1.28,WUHU216PEETBRO,2013-04-30 01:12:00,
2013-04-29 21:17:00,69.1,67.9,30.02,East,98,0.0,8.1,96,1.33,,,1.33,WUHU216PEETBRO,2013-04-30 01:17:00,
2013-04-29 21:22:00,69.1,67.9,30.01,NE,56,6.2,8.1,96,1.24,,,1.37,WUHU216PEETBRO,2013-04-30 01:22:00,
2013-04-29 21:27:00,68.9,67.7,30.01,NE,53,5.3,9.5,96,1.11,,,1.42,WUHU216PEETBRO,2013-04-30 01:27:00,
2013-04-29 21:32:00,69.1,68.0,30.01,NE,35,0.0,9.5,96,0.99,,,1.44,WUHU216PEETBRO,2013-04-30 01:32:00,
2013-04-29 21:37:00,68.7,67.6,30.01,ENE,67,0.0,5.8,96,1.00,,,1.49,WUHU216PEETBRO,2013-04-30 01:37:00,
2013-04-29 21:42:00,68.4,67.3,30.00,East,83,0.0,7.3,97,0.95,,,1.49,WUHU216PEETBRO,2013-04-30 01:42:00,
2013-04-29 21:47:00,68.5,67.5,30.00,SSE,162,0.0,7.3,97,0.91,,,1.50,WUHU216PEETBRO,2013-04-30 01:47:00,
2013-04-29 21:52:00,68.3,67.3,30.00,ESE,118,0.0,4.6,97,0.76,,,1.50,WUHU216PEETBRO,2013-04-30 01:52:00,
2013-04-29 21:57:00,68.3,67.3,29.99,SSE,155,0.0,4.7,97,0.52,,,1.50,WUHU216PEETBRO,2013-04-30 01:57:00,
2013-04-29 22:02:00,68.3,67.3,30.00,SE,124,0.0,4.7,97,0.38,,,1.50,WUHU216PEETBRO,2013-04-30 02:02:00,
2013-04-29 22:07:00,68.3,67.3,30.00,SE,142,0.0,5.2,97,0.28,,,1.50,WUHU216PEETBRO,2013-04-30 02:07:00,
2013-04-29 22:12:00,68.5,67.5,30.00,South,175,0.0,5.2,97,0.22,,,1.50,WUHU216PEETBRO,2013-04-30 02:12:00,
2013-04-29 22:17:00,68.6,67.5,30.00,ESE,110,0.0,4.5,96,0.17,,,1.50,WUHU216PEETBRO,2013-04-30 02:17:00,
2013-04-29 22:22:00,68.8,67.7,30.00,SE,136,0.0,4.6,96,0.13,,,1.50,WUHU216PEETBRO,2013-04-30 02:22:00,
2013-04-29 22:27:00,68.9,67.7,30.01,SE,136,0.0,4.6,96,0.08,,,1.50,WUHU216PEETBRO,2013-04-30 02:27:00,
2013-04-29 22:32:00,69.1,67.9,30.01,SE,136,0.0,0.0,96,0.06,,,1.50,WUHU216PEETBRO,2013-04-30 02:32:00,
2013-04-29 22:37:00,69.2,68.0,30.01,SE,136,0.0,0.0,96,0.01,,,1.50,WUHU216PEETBRO,2013-04-30 02:37:00,
2013-04-29 22:42:00,69.4,68.2,30.01,SE,136,0.0,0.0,96,0.01,,,1.50,WUHU216PEETBRO,2013-04-30 02:42:00,
2013-04-29 22:47:00,69.5,68.3,30.01,SE,136,0.0,0.0,96,0.00,,,1.50,WUHU216PEETBRO,2013-04-30 02:47:00,
2013-04-29 22:52:00,69.6,68.3,30.02,SSW,200,3.2,3.2,96,0.00,,,1.50,WUHU216PEETBRO,2013-04-30 02:52:00,
2013-04-29 22:57:00,69.6,68.3,30.01,SW,227,3.4,15.9,96,0.01,,,1.51,WUHU216PEETBRO,2013-04-30 02:57:00,
2013-04-29 23:02:00,69.5,68.3,30.01,SSW,210,6.1,15.9,96,0.03,,,1.53,WUHU216PEETBRO,2013-04-30 03:02:00,
2013-04-29 23:07:00,69.4,68.4,30.01,West,271,3.3,10.9,97,0.10,,,1.60,WUHU216PEETBRO,2013-04-30 03:07:00,
2013-04-29 23:12:00,69.3,68.3,30.01,SW,215,0.0,10.9,97,0.11,,,1.61,WUHU216PEETBRO,2013-04-30 03:12:00,
2013-04-29 23:17:00,69.3,68.2,30.01,SW,215,0.0,7.5,97,0.11,,,1.61,WUHU216PEETBRO,2013-04-30 03:17:00,
2013-04-29 23:22:00,69.4,68.3,30.00,SW,215,0.0,0.0,97,0.12,,,1.62,WUHU216PEETBRO,2013-04-30 03:22:00,
2013-04-29 23:27:00,69.1,68.0,30.00,SW,215,0.0,0.0,96,0.12,,,1.62,WUHU216PEETBRO,2013-04-30 03:27:00,
2013-04-29 23:32:00,69.0,67.9,30.01,SW,215,0.0,0.0,96,0.12,,,1.62,WUHU216PEETBRO,2013-04-30 03:32:00,
2013-04-29 23:37:00,69.1,67.9,30.01,SW,215,0.0,0.0,96,0.12,,,1.62,WUHU216PEETBRO,2013-04-30 03:37:00,
2013-04-29 23:42:00,68.9,67.8,30.01,SW,215,0.0,0.0,96,0.12,,,1.62,WUHU216PEETBRO,2013-04-30 03:42:00,
2013-04-29 23:47:00,68.9,67.8,30.01,SW,215,0.0,0.0,96,0.12,,,1.62,WUHU216PEETBRO,2013-04-30 03:47:00,
2013-04-29 23:52:00,68.7,67.6,30.01,SW,215,0.0,0.0,96,0.12,,,1.62,WUHU216PEETBRO,2013-04-30 03:52:00,
2013-04-29 23:57:00,68.8,67.8,30.01,SW,215,0.0,0.0,97,0.11,,,1.62,WUHU216PEETBRO,2013-04-30 03:57:00,